SCP
0 0 1 1 1 1 1 1 0 1 1 1 1 1 1 1 0 0 0 0 0 0 0 0 0 0 0 0 0 0 0 0 0 0 0 0 0 0 0 0 0 0 0
0 1 1 1 1 1 1 1 1 1 1 1 0 0 0 0 0 0 0 0 0 0 0 0 0 0 0 0 0 0 0 0 0 0 0 0 0 0 0 0 0 0 0
1 1 1 1 1 1 1 1 1 0 0 0 0 0 0 0 0 0 0 0 0 0 0 0 0 0 0 0 0 0 0 0 0 0 0 0 0 0 0 0 0 0 0
1 1 1 1 1 1 1 1 1 0 0 0 0 0 0 0 0 0 0 0 0 0 0 0 0 0 0 0 0 0 0 0 0 0 0 0 0 0 0 0 0 0 0
1 1 1 1 1 1 1 1 1 1 1 0 0 0 0 0 0 0 0 0 0 0 0 0 0 0 0 0 0 0 0 0 0 0 0 0 0 0 0 0 0 0 0
1 1 1 2 2 2 1 1 1 1 1 1 0 0 0 0 0 0 0 0 0 0 0 0 0 0 0 0 0 0 0 0 0 0 0 0 0 0 0 0 0 0 0
1 1 2 2 3 2 2 1 1 1 1 1 1 1 1 1 1 1 0 0 0 0 0 0 0 0 0 0 0 0 0 0 0 0 0 0 0 0 0 0 0 0 0
1 1 1 2 3 3 2 2 1 1 1 1 1 1 1 1 1 1 1 0 0 0 0 0 0 0 0 0 0 0 0 0 0 0 0 0 0 0 0 0 0 0 0
1 1 1 2 2 2 2 2 2 2 1 1 1 1 1 1 1 1 1 1 1 0 0 0 0 0 0 0 0 0 1 0 0 0 0 0 0 0 0 0 0 0 0
1 2 2 2 2 2 2 2 2 2 2 2 1 1 1 1 1 1 1 1 1 1 1 1 1 1 1 0 0 1 1 1 1 0 0 0 1 0 0 0 1 1 0
2 2 2 2 2 2 2 3 2 2 2 2 2 1 1 1 1 1 1 1 1 1 1 1 1 1 1 1 1 1 1 1 1 1 1 1 1 1 1 1 1 1 1
1 2 2 2 2 2 3 3 3 3 2 2 2 2 1 1 1 1 1 1 1 1 1 1 1 1 1 1 1 1 1 1 1 1 1 1 1 1 1 1 1 1 1
1 1 2 2 3 3 3 3 3 4 4 3 3 3 2 2 1 1 1 1 1 1 1 1 1 1 1 1 1 1 1 1 1 1 1 1 1 1 1 1 1 1 1
1 2 2 2 3 3 3 4 5 6 6 5 4 4 3 2 2 1 1 1 1 1 1 1 1 1 1 1 1 1 1 1 1 1 1 1 1 1 1 1 1 1 1
2 2 2 2 3 3 4 5 5 7 6 5 5 4 3 2 2 2 2 1 1 1 1 1 1 1 1 1 1 1 1 1 1 1 1 1 1 1 1 1 1 1 1
3 3 2 2 3 3 4 4 4 5 4 4 4 4 3 3 2 2 1 1 1 1 1 1 1 1 1 1 1 1 1 1 1 1 1 1 1 1 1 1 1 1 1
3 3 3 3 3 3 3 3 3 3 3 3 3 3 2 2 2 1 1 1 1 1 1 1 1 1 1 1 1 1 1 1 1 1 1 1 1 1 1 1 1 1 1
4 3 2 2 2 2 3 3 3 3 2 3 3 2 2 2 2 1 1 1 1 1 1 1 1 1 1 1 1 1 1 1 1 1 1 1 1 1 1 1 1 1 1
3 2 2 2 2 2 2 3 3 3 3 3 3 2 2 2 2 2 1 1 1 1 1 1 1 1 1 1 0 0 0 0 0 0 0 0 1 1 1 1 1 1 1
1 1 1 1 1 2 2 2 2 2 3 3 3 2 2 2 2 2 1 1 1 1 0 0 0 0 0 0 0 0 0 0 0 0 0 0 0 0 1 1 1 1 1
0 0 0 0 1 1 1 1 1 1 2 3 4 3 2 1 1 2 1 1 1 0 0 0 0 0 0 0 0 0 0 0 0 0 0 0 0 0 0 1 1 1 1
0 0 0 0 0 0 0 0 0 0 1 2 2 2 1 1 1 1 1 1 0 0 0 0 0 0 0 0 0 0 0 0 0 0 0 0 0 0 0 0 0 1 1
0 0 0 0 0 0 0 0 0 0 0 0 1 1 0 1 1 1 1 0 0 0 0 0 0 0 0 0 0 0 0 0 0 0 0 0 0 0 0 0 0 0 0
0 0 0 0 0 0 0 0 0 0 0 0 0 0 0 0 0 0 0 0 0 0 0 0 0 0 0 0 0 0 0 0 0 0 0 0 0 0 0 0 0 0 0
0 0 0 0 0 0 0 0 0 0 0 0 0 0 0 0 0 0 0 0 0 0 0 0 0 0 0 0 0 0 0 0 0 0 0 0 0 0 0 0 0 0 0
0 0 0 0 0 0 0 0 0 0 0 0 0 0 0 0 0 0 0 0 0 0 0 0 0 0 0 0 0 0 0 0 0 0 0 0 0 0 0 0 0 0 0
Wind_Speed
8 10 17 17 16 16 15 14 14 14 15 15 15 15 15 15 15 14 13 12 12 11 9 8 8 9 9 9 9 10 12 12 13 13 13 13 13 13 13 14 13 10 14
12 13 18 18 17 16 15 15 14 14 15 15 15 15 15 15 15 14 13 13 12 11 10 9 9 9 8 9 9 10 11 11 12 12 13 12 13 13 12 13 12 9 14
13 12 15 17 17 17 15 15 14 14 14 14 14 14 14 14 14 14 13 13 12 11 10 10 10 9 9 8 9 9 10 10 11 11 11 6 8 12 12 12 12 13 13
13 10 11 17 17 17 16 15 14 14 14 14 13 13 13 13 14 14 13 13 12 11 10 10 10 10 9 9 8 8 9 9 10 10 5 4 5 10 12 13 13 13 13
11 9 12 20 18 17 16 15 14 14 13 13 13 13 12 13 13 13 13 12 11 10 10 10 10 10 9 9 8 8 8 8 9 7 4 3 1 8 12 13 13 13 13
11 9 11 20 18 18 17 16 15 14 14 13 13 12 12 12 12 13 13 12 11 10 9 9 9 9 9 9 9 8 8 8 7 3 3 3 2 7 11 13 13 13 13
11 8 10 19 19 18 17 16 15 14 14 13 13 12 12 12 11 11 11 11 10 10 10 9 9 9 9 9 9 9 8 9 4 2 3 3 5 8 11 13 13 14 13
12 9 8 18 19 18 17 16 16 15 14 14 13 13 13 12 12 11 11 11 11 11 11 10 10 10 10 10 10 10 10 9 6 5 4 4 7 10 13 14 15 15 15
8 7 5 8 12 16 16 16 15 15 14 14 13 13 13 13 13 12 12 12 12 12 12 12 12 12 12 11 11 11 11 11 6 4 5 4 7 10 13 15 15 16 16
6 5 4 4 5 6 8 13 14 14 14 14 14 14 14 14 13 14 12 12 13 13 13 13 13 13 13 12 12 12 12 10 7 6 5 5 9 10 12 15 16 16 17
5 4 3 3 3 3 3 6 9 12 13 13 12 15 14 7 7 8 11 14 15 15 15 15 15 14 14 13 14 14 11 5 6 5 5 9 11 12 12 14 16 16 17
5 4 3 3 3 3 2 1 2 3 4 5 4 6 5 4 5 8 9 16 17 17 16 16 16 15 12 6 10 12 5 7 6 6 6 12 13 13 13 13 15 17 17
5 4 4 4 3 2 1 0 1 1 2 4 5 5 4 4 4 6 3 7 9 12 9 9 10 7 7 6 6 5 6 6 5 5 7 13 14 14 14 13 14 17 18
8 6 5 4 2 1 1 2 3 3 3 4 5 6 5 4 5 5 5 5 5 4 6 6 5 7 8 9 8 8 8 6 5 5 7 14 15 14 14 14 13 15 17
8 6 4 4 3 2 3 4 4 4 5 5 5 6 7 6 6 6 6 5 6 5 6 6 6 7 7 8 8 9 9 8 8 7 5 13 15 14 14 14 14 15 15
6 4 4 3 3 3 4 5 5 4 4 4 4 5 7 7 7 6 6 6 6 6 6 6 6 6 5 5 6 7 8 7 7 7 6 8 13 12 13 14 14 13 13
3 1 1 2 3 4 5 7 6 5 6 5 4 5 7 7 7 7 6 6 6 5 5 4 5 4 4 4 5 5 5 6 6 7 7 6 6 10 13 13 13 13 13
4 3 3 3 4 5 5 6 6 5 5 4 4 4 6 7 8 6 5 6 5 4 4 3 3 3 3 3 3 3 4 4 6 7 6 6 6 6 9 13 14 14 15
5 5 5 6 6 6 6 6 6 4 4 3 3 3 5 7 8 7 5 5 4 3 3 3 2 2 3 3 3 3 3 4 5 5 6 7 7 7 7 9 13 14 16
6 6 6 6 8 7 5 4 4 2 1 1 2 3 6 6 8 6 5 5 4 3 3 3 3 2 2 2 2 2 3 3 4 5 6 6 6 7 8 8 7 8 14
7 8 8 7 7 6 4 4 4 3 2 2 2 4 6 6 7 6 5 5 5 4 4 4 3 3 2 2 1 1 2 2 3 4 4 4 5 5 6 7 6 6 6
7 7 7 7 7 7 4 3 2 2 2 2 3 3 3 4 5 5 5 5 5 4 4 4 3 3 2 3 3 1 2 2 2 1 1 2 2 2 3 4 5 6 6
6 5 5 6 6 6 6 3 2 2 2 3 4 4 5 4 3 4 5 5 5 5 5 6 5 5 4 2 2 3 3 2 2 2 1 1 1 1 2 3 5 6 7
4 4 4 4 4 5 5 4 5 3 2 3 3 4 5 5 4 2 2 4 5 5 5 6 6 4 5 3 2 2 2 3 2 1 2 2 2 3 4 4 5 6 6
5 5 4 4 3 3 3 3 3 2 1 2 3 5 5 6 6 5 4 2 3 4 5 6 6 6 5 5 4 3 2 1 2 2 2 3 3 3 4 5 4 5 5
6 6 5 4 4 4 2 1 1 1 1 2 3 4 4 3 4 5 5 4 3 3 5 6 7 8 6 5 4 4 4 3 3 4 4 3 3 3 4 4 3 3 4
Wind_Direction
163 160 168 161 155 149 146 145 143 139 136 134 134 136 139 143 146 150 154 156 156 156 153 146 139 134 133 132 129 127 126 128 131 134 134 130 127 124 121 119 118 118 120
150 157 166 162 157 152 149 149 147 144 141 139 140 143 146 149 153 156 158 160 161 162 159 155 152 147 144 143 141 139 137 138 140 142 142 138 136 132 128 126 125 127 125
142 153 163 161 158 155 153 152 152 149 146 144 146 150 154 157 159 161 162 164 167 167 164 162 161 158 155 155 152 150 148 147 149 150 139 129 139 142 140 140 137 132 129
142 149 159 162 160 158 156 156 155 153 150 150 153 157 161 165 166 167 168 169 170 170 168 168 168 166 164 164 163 161 158 156 155 148 129 137 149 155 153 152 148 143 139
141 147 163 165 164 161 160 161 160 158 157 159 162 166 168 170 172 174 175 176 176 175 175 177 177 174 172 172 172 172 172 169 166 149 148 158 157 164 163 161 160 156 151
144 148 167 166 167 165 165 167 167 166 166 168 171 175 177 179 180 181 182 184 185 186 187 188 187 185 183 181 182 184 187 190 177 143 165 182 195 185 176 173 172 169 164
147 151 168 168 170 170 171 173 173 173 174 176 179 183 186 187 189 190 190 192 194 196 197 198 198 196 196 195 195 196 200 206 181 180 196 207 215 214 198 188 183 180 176
149 150 165 171 173 174 176 178 179 180 181 184 187 191 193 195 197 199 200 202 204 205 206 206 206 205 206 207 207 207 209 216 211 213 222 225 227 224 215 203 194 188 185
137 139 154 167 174 178 181 184 186 188 190 192 195 199 201 204 205 207 209 211 213 214 215 215 215 215 215 217 218 218 219 222 217 209 225 224 232 229 223 214 205 197 192
129 134 136 141 152 167 182 192 194 197 200 202 204 207 209 212 214 216 216 221 223 225 225 226 227 227 226 226 227 228 229 230 227 221 229 235 237 234 228 220 211 205 200
130 118 110 110 115 129 165 202 206 211 213 213 214 217 216 217 219 224 226 226 232 234 234 235 235 236 235 235 235 235 235 228 226 230 230 237 239 238 234 226 215 210 207
136 132 109 105 91 89 166 207 232 230 229 224 219 223 220 208 216 227 235 236 237 239 241 241 239 240 239 234 239 240 232 228 227 233 234 235 236 237 237 232 219 212 210
113 117 104 101 98 119 157 209 240 243 239 232 226 222 225 219 220 231 227 244 248 248 246 247 244 234 229 223 225 226 230 232 231 236 239 240 236 235 237 236 227 218 214
106 108 108 114 127 153 203 227 221 222 226 227 225 218 218 226 226 227 230 229 233 239 244 242 235 229 227 224 222 224 227 227 229 231 238 244 242 236 238 240 235 226 221
111 115 127 140 150 198 236 254 242 228 228 226 219 216 218 227 233 228 228 230 231 230 238 241 237 232 230 226 223 224 228 228 230 229 238 247 248 241 238 242 241 236 230
111 133 150 163 190 214 235 253 254 247 237 235 227 224 224 227 232 232 230 230 232 229 230 232 230 227 226 224 225 224 228 230 232 235 236 249 254 252 248 247 247 244 236
74 78 129 230 239 248 250 248 252 243 231 225 222 226 234 234 236 235 232 235 234 227 224 225 226 219 222 222 229 230 230 232 232 237 240 241 252 258 258 256 253 250 241
8 345 330 321 303 284 271 263 257 240 225 223 217 221 238 242 242 239 231 232 227 216 209 207 200 200 214 215 223 230 230 233 236 237 239 243 245 250 255 255 253 250 243
0 350 340 339 330 316 302 293 281 251 217 211 224 233 246 245 239 232 226 223 203 195 196 199 180 181 193 204 220 233 236 236 242 244 242 245 243 243 244 252 253 252 248
8 7 2 353 350 334 317 310 313 305 322 275 242 239 244 243 233 216 215 202 183 177 183 183 170 172 184 191 226 248 253 250 249 248 250 251 248 247 246 248 250 253 251
17 16 14 10 357 351 340 335 335 348 358 336 288 246 237 240 231 208 203 187 179 183 188 180 165 176 187 160 151 294 297 266 256 249 245 246 251 252 250 248 246 245 251
11 8 6 5 1 357 347 329 330 331 334 322 317 307 280 249 232 216 203 192 184 180 182 182 170 166 180 171 161 160 310 330 314 290 266 227 244 264 267 262 251 245 245
0 355 356 356 358 356 354 356 2 15 2 5 350 345 332 309 260 225 211 200 192 185 189 190 182 173 181 192 189 162 171 227 296 316 315 305 303 293 292 289 274 260 251
320 320 331 342 349 350 1 33 46 45 20 344 330 336 337 345 344 320 261 226 208 201 198 196 190 180 166 180 198 204 183 170 180 305 317 320 315 290 293 291 289 277 262
290 294 300 313 322 330 2 39 56 52 357 316 330 346 353 352 358 1 344 294 245 225 217 205 189 188 183 176 176 170 177 185 183 196 269 307 311 287 281 283 286 285 278
279 276 277 284 289 296 313 335 118 142 296 328 334 338 340 337 343 355 353 338 299 260 235 222 208 197 195 186 181 177 173 173 184 192 223 256 284 289 291 285 288 297 297